Weather History for Black River Falls, WI

Change the Weather History Date:

Monday, November 25, 2013

  Actual Average (KLSE) Record (KLSE)
Temperature  
Mean Temperature 32 °F 31 °F  
Max Temperature 38 °F 38 °F 60 °F (1896)
Min Temperature 26 °F 23 °F -10 °F (1880)
Degree Days  
Heating Degree Days 33 34  
Month to date heating degree days 691  
Since 1 July heating degree days 1319  
Cooling Degree Days 0 0  
Month to date cooling degree days 0  
Year to date cooling degree days 782  
Moisture  
Dew Point 19 °F    
Average Humidity 58    
Maximum Humidity 76    
Minimum Humidity 41    
Precipitation  
Precipitation 0.00 in 0.07 in 0.86 in (1952)
Month to date precipitation 1.69  
Year to date precipitation 31.38  
Snow  
Snow 0.00 in 0.20 in 4.20 in (1942)
Month to date snowfall 2.8  
Since 1 July snowfall 3.0  
Snow Depth -    
Sea Level Pressure  
Sea Level Pressure 29.98 in    
Wind  
Wind Speed 9 mph (WSW)    
Max Wind Speed 14 mph    
Max Gust Speed 23 mph    
Visibility 10 miles    
Events      
T = Trace of Precipitation, MM = Missing Value Source: NWS Daily Summary

Daily Weather History Graph

Daily Weather History Graph

Search for Another Location

Airport:

Trip Planner

Search our weather history database for the weather conditions in past years. The results will help you decide how hot, cold, wet, or windy it might be!

Date:

Astronomy

Nov. 25, 2013 Rise Set
Actual Time 7:12 AM CST 4:28 PM CST
Civil Twilight 6:40 AM CST 5:00 PM CST
Nautical Twilight 6:04 AM CST 5:36 PM CST
Astronomical Twilight 5:29 AM CST 6:11 PM CST
Moon No Moon Rise 12:20 PM CST (11/25)
Length of Visible Light 10h 20m
Length of Day
9h 16m
Waning Gibbous, 51% of the Moon is Illuminated
Nov 25
Waning Gibbous
Nov 25
Last Quarter
Dec 2
New
Dec 9
First Quarter
Dec 17
Full

Hourly Weather History & Observations

Time (CST) Temp. Windchill Dew Point Humidity Pressure Visibility Wind Dir Wind Speed Gust Speed Precip Events Conditions
12:15 AM 26.1 °F 16.8 °F 6.3 °F 43% 30.08 in 10.0 mi SSW 9.2 mph 12.7 mph N/A   Overcast
12:35 AM 26.2 °F 18.6 °F 5.9 °F 42% 30.08 in 10.0 mi SW 6.9 mph 16.1 mph N/A   Overcast
12:55 AM 26.6 °F 18.2 °F 6.1 °F 42% 30.06 in 10.0 mi SSW 8.1 mph - N/A   Overcast
1:15 AM 27.0 °F 17.3 °F 5.9 °F 41% 30.05 in 10.0 mi SSW 10.4 mph 16.1 mph N/A   Overcast
1:35 AM 26.6 °F 16.8 °F 6.1 °F 42% 30.04 in 10.0 mi SSW 10.4 mph 18.4 mph N/A   Overcast
1:55 AM 27.0 °F 17.3 °F 6.1 °F 41% 30.02 in 10.0 mi SSW 10.4 mph 20.7 mph N/A   Overcast
2:15 AM 27.0 °F 17.3 °F 6.3 °F 42% 30.02 in 10.0 mi SSW 10.4 mph 23.0 mph N/A   Overcast
2:35 AM 27.1 °F 18.9 °F 6.4 °F 42% 30.02 in 10.0 mi SSW 8.1 mph - N/A   Overcast
2:55 AM 27.5 °F 18.6 °F 6.6 °F 41% 30.01 in 10.0 mi SW 9.2 mph 16.1 mph N/A   Overcast
3:15 AM 27.5 °F 18.6 °F 6.8 °F 42% 30.01 in 10.0 mi SW 9.2 mph 19.6 mph N/A   Overcast
3:35 AM 27.5 °F 20.2 °F 7.7 °F 43% 30.00 in 10.0 mi SW 6.9 mph - N/A   Overcast
3:55 AM 27.5 °F 18.6 °F 8.6 °F 45% 30.00 in 10.0 mi SSW 9.2 mph - N/A   Overcast
4:15 AM 27.5 °F 20.2 °F 10.0 °F 48% 29.99 in 10.0 mi SW 6.9 mph 16.1 mph N/A   Overcast
4:35 AM 27.3 °F 19.1 °F 11.3 °F 51% 29.98 in 10.0 mi SW 8.1 mph 17.3 mph N/A   Mostly Cloudy
4:55 AM 27.1 °F 15.9 °F 12.9 °F 55% 29.98 in 10.0 mi SW 13.8 mph 21.9 mph N/A   Mostly Cloudy
5:15 AM 27.1 °F 18.9 °F 14.4 °F 59% 29.97 in 10.0 mi SW 8.1 mph 17.3 mph N/A   Scattered Clouds
5:35 AM 27.1 °F 18.9 °F 16.3 °F 64% 29.97 in 10.0 mi SSW 8.1 mph - N/A   Mostly Cloudy
5:55 AM 27.5 °F 20.2 °F 18.3 °F 68% 29.97 in 10.0 mi SW 6.9 mph 17.3 mph N/A   Overcast
6:15 AM 27.5 °F 18.0 °F 19.4 °F 72% 29.96 in 10.0 mi SW 10.4 mph 18.4 mph N/A   Overcast
6:35 AM 27.5 °F 19.3 °F 20.1 °F 74% 29.96 in 10.0 mi SW 8.1 mph 17.3 mph N/A   Overcast
6:55 AM 27.5 °F 16.8 °F 20.3 °F 74% 29.96 in 10.0 mi SW 12.7 mph 16.1 mph N/A   Overcast
7:15 AM 27.5 °F 19.3 °F 20.7 °F 75% 29.95 in 10.0 mi SW 8.1 mph 18.4 mph N/A   Overcast
7:35 AM 27.5 °F 18.6 °F 20.8 °F 76% 29.96 in 10.0 mi SW 9.2 mph - N/A   Overcast
7:55 AM 28.0 °F 19.3 °F 21.0 °F 75% 29.96 in 10.0 mi SW 9.2 mph - N/A   Overcast
8:15 AM 28.4 °F 20.4 °F 21.2 °F 74% 29.97 in 10.0 mi SW 8.1 mph 18.4 mph N/A   Overcast
8:35 AM 28.9 °F 21.1 °F 21.2 °F 73% 29.97 in 10.0 mi SW 8.1 mph 18.4 mph N/A   Overcast
9:15 AM 29.7 °F 20.7 °F 21.6 °F 72% 29.97 in 10.0 mi SW 10.4 mph 17.3 mph N/A   Overcast
9:35 AM 30.0 °F 23.2 °F 21.6 °F 71% 29.97 in 10.0 mi SW 6.9 mph - N/A   Overcast
9:55 AM 30.2 °F 21.3 °F 21.6 °F 70% 29.97 in 10.0 mi WSW 10.4 mph - N/A   Overcast
10:15 AM 30.2 °F 19.8 °F 21.2 °F 69% 29.98 in 10.0 mi WSW 13.8 mph 18.4 mph N/A   Overcast
10:35 AM 30.6 °F 20.7 °F 21.2 °F 68% 29.97 in 10.0 mi WSW 12.7 mph 18.4 mph N/A   Overcast
10:55 AM 30.9 °F 22.8 °F 21.2 °F 67% 29.96 in 10.0 mi WSW 9.2 mph - N/A   Overcast
11:15 AM 31.6 °F 24.4 °F 21.2 °F 65% 29.94 in 10.0 mi SW 8.1 mph 16.1 mph N/A   Overcast
11:35 AM 32.0 °F 24.2 °F 21.4 °F 65% 29.95 in 10.0 mi SW 9.2 mph 17.3 mph N/A   Overcast
11:55 AM 32.2 °F 25.8 °F 21.7 °F 65% 29.94 in 10.0 mi SW 6.9 mph 18.4 mph N/A   Overcast
12:15 PM 33.1 °F 25.5 °F 21.9 °F 64% 29.94 in 10.0 mi WSW 9.2 mph 17.3 mph N/A   Overcast
12:35 PM 35.1 °F 26.9 °F 22.6 °F 61% 29.94 in 10.0 mi WSW 11.5 mph 19.6 mph N/A   Scattered Clouds
12:55 PM 36.0 °F 29.0 °F 23.0 °F 59% 29.93 in 10.0 mi WSW 9.2 mph 16.1 mph N/A   Clear
1:15 PM 36.7 °F 29.4 °F 23.4 °F 59% 29.93 in 10.0 mi SW 10.4 mph 17.3 mph N/A   Scattered Clouds
1:35 PM 37.4 °F 32.1 °F 23.7 °F 58% 29.93 in 10.0 mi WSW 6.9 mph - N/A   Clear
1:55 PM 38.3 °F 30.9 °F 23.5 °F 55% 29.93 in 10.0 mi West 11.5 mph - N/A   Clear
2:15 PM 38.7 °F 32.9 °F 23.7 °F 55% 29.93 in 10.0 mi WSW 8.1 mph - N/A   Clear
2:35 PM 37.6 °F 32.3 °F 23.9 °F 58% 29.93 in 10.0 mi WSW 6.9 mph - N/A   Mostly Cloudy
2:55 PM 37.6 °F 33.1 °F 24.3 °F 59% 29.94 in 10.0 mi SW 5.8 mph - N/A   Overcast
3:15 PM 37.4 °F 33.8 °F 24.4 °F 60% 29.94 in 10.0 mi WSW 4.6 mph - N/A   Overcast
3:35 PM 37.4 °F 33.8 °F 24.8 °F 60% 29.95 in 10.0 mi WSW 4.6 mph - N/A   Overcast
3:55 PM 37.0 °F 34.5 °F 25.0 °F 62% 29.96 in 10.0 mi SW 3.5 mph - N/A   Overcast
4:15 PM 36.7 °F 34.1 °F 25.5 °F 64% 29.96 in 10.0 mi SW 3.5 mph - N/A   Overcast
4:35 PM 36.5 °F 32.7 °F 25.7 °F 65% 29.97 in 10.0 mi WSW 4.6 mph - N/A   Overcast
4:55 PM 36.7 °F 32.0 °F 25.3 °F 64% 29.97 in 10.0 mi WNW 5.8 mph - N/A   Overcast
5:15 PM 37.9 °F 30.9 °F 22.3 °F 53% 29.98 in 10.0 mi WNW 10.4 mph 16.1 mph N/A   Overcast
5:35 PM 37.8 °F 31.8 °F 21.7 °F 53% 29.98 in 10.0 mi WNW 8.1 mph 16.1 mph N/A   Overcast
5:55 PM 37.6 °F 31.0 °F 21.0 °F 51% 29.99 in 10.0 mi WNW 9.2 mph 16.1 mph N/A   Overcast
6:15 PM 37.4 °F 30.3 °F 21.0 °F 52% 29.99 in 10.0 mi NW 10.4 mph 16.1 mph N/A   Overcast
6:35 PM 37.2 °F 30.0 °F 21.2 °F 52% 30.00 in 10.0 mi WNW 10.4 mph 17.3 mph N/A   Overcast
6:55 PM 36.9 °F 30.1 °F 21.6 °F 54% 30.00 in 10.0 mi West 9.2 mph - N/A   Overcast
7:15 PM 36.7 °F 32.0 °F 21.4 °F 54% 30.00 in 10.0 mi WNW 5.8 mph - N/A   Overcast
7:35 PM 36.3 °F 30.8 °F 21.7 °F 56% 30.00 in 10.0 mi West 6.9 mph - N/A   Overcast
7:55 PM 35.8 °F 30.9 °F 22.1 °F 58% 30.00 in 10.0 mi West 5.8 mph - N/A   Overcast
8:15 PM 35.8 °F 31.9 °F 22.1 °F 58% 29.99 in 10.0 mi West 4.6 mph - N/A   Overcast
8:35 PM 35.8 °F 31.9 °F 22.3 °F 58% 29.99 in 10.0 mi West 4.6 mph - N/A   Overcast
8:55 PM 36.0 °F 31.1 °F 22.1 °F 57% 29.99 in 10.0 mi WSW 5.8 mph - N/A   Overcast
9:15 PM 36.0 °F 31.1 °F 22.1 °F 57% 29.98 in 10.0 mi WSW 5.8 mph - N/A   Overcast
9:35 PM 36.0 °F 32.1 °F 22.6 °F 58% 29.98 in 10.0 mi West 4.6 mph - N/A   Overcast
9:55 PM 36.0 °F 31.1 °F 22.8 °F 59% 29.98 in 10.0 mi WSW 5.8 mph - N/A   Overcast
10:15 PM 36.1 °F 29.9 °F 22.5 °F 58% 29.98 in 10.0 mi West 8.1 mph - N/A   Overcast
10:35 PM 36.0 °F 29.0 °F 22.3 °F 58% 29.98 in 10.0 mi West 9.2 mph - N/A   Overcast
10:55 PM 36.1 °F 30.6 °F 21.9 °F 56% 29.98 in 10.0 mi West 6.9 mph - N/A   Overcast
11:15 PM 35.8 °F 30.1 °F 22.1 °F 58% 29.98 in 10.0 mi West 6.9 mph - N/A   Overcast
11:35 PM 35.8 °F 29.4 °F 22.5 °F 58% 29.99 in 10.0 mi West 8.1 mph - N/A   Overcast
11:55 PM 35.8 °F 28.8 °F 22.6 °F 59% 29.98 in 10.0 mi West 9.2 mph 16.1 mph N/A   Overcast